This is the latest recevied weather packets stored in our database for station/object N0HOT. If no packets are shown the sender has not sent any weather packets the latest 10 day(s).
| Time | Temp. | Humidity | Pressure | Rain* | Wind** | Luminosity | Snow |
|---|---|---|---|---|---|---|---|
| 1777749317 | 18.33° C | 22% | 1015.6 hPa | 0 mm | - | 815 W/m² | - |
| 1777749015 | 18.33° C | 20% | 1016 hPa | 0 mm | - | 866 W/m² | - |
| 1777748712 | 18.33° C | 21% | 1016 hPa | 0 mm | - | 868 W/m² | - |
| 1777748408 | 17.78° C | 20% | 1016 hPa | 0 mm | - | 873 W/m² | - |
| 1777748104 | 17.78° C | 25% | 1016 hPa | 0 mm | - | 879 W/m² | - |
| 1777747801 | 17.78° C | 22% | 1016.3 hPa | 0 mm | - | 884 W/m² | - |
| 1777747495 | 17.22° C | 22% | 1016.7 hPa | 0 mm | - | 862 W/m² | - |
| 1777747193 | 17.22° C | 20% | 1016.7 hPa | 0 mm | - | 883 W/m² | - |
| 1777746889 | 17.22° C | 23% | 1016.3 hPa | 0 mm | - | 867 W/m² | - |
| 1777746584 | 17.22° C | 23% | 1016.7 hPa | 0 mm | - | 888 W/m² | - |
| 1777746280 | 17.22° C | 25% | 1017 hPa | 0 mm | - | 911 W/m² | - |
| 1777745976 | 17.22° C | 24% | 1016.7 hPa | 0 mm | - | 895 W/m² | - |
| 1777745675 | 17.78° C | 22% | 1016.7 hPa | 0 mm | - | 181 W/m² | - |
| 1777745373 | 17.78° C | 22% | 1016.7 hPa | 0 mm | - | 944 W/m² | - |
| 1777745070 | 17.22° C | 22% | 1017 hPa | 0 mm | - | 874 W/m² | - |
| 1777744766 | 17.22° C | 23% | 1016.7 hPa | 0 mm | - | 849 W/m² | - |
| 1777744460 | 17.22° C | 21% | 1017 hPa | 0 mm | - | 895 W/m² | - |
| 1777744157 | 17.22° C | 21% | 1017 hPa | 0 mm | - | 875 W/m² | - |
| 1777743854 | 17.22° C | 22% | 1017 hPa | 0 mm | - | 917 W/m² | - |
| 1777743550 | 17.22° C | 23% | 1017.3 hPa | 0 mm | - | 965 W/m² | - |
| 1777743247 | 17.22° C | 21% | 1017.3 hPa | 0 mm | - | 217 W/m² | - |
| 1777742946 | 16.67° C | 22% | 1017.3 hPa | 0 mm | - | 971 W/m² | - |
| 1777742643 | 16.67° C | 22% | 1017.8 hPa | 0 mm | - | 959 W/m² | - |
| 1777742338 | 16.67° C | 22% | 1017.3 hPa | 0 mm | - | 993 W/m² | - |
| 1777742035 | 16.11° C | 21% | 1017.3 hPa | 0 mm | - | 1005 W/m² | - |
* Rain latest hour (hover to see other rain measurements)
** Current wind speed in m/s (hover to see current wind gust speed)